LU3MCV-13 Weather Reports


Display with metric or nautical units.
time (UTC)temp
F
wind
direction
speed
MPH
gust
MPH
rain 1hr
in
rain 24hr
in
rain mn
in
humidity
%
barometer
mb
20260507144327 64 0 0.0 0.0 0.00 0.00 0.00 5 933.0
20260507142827 64 0 0.0 0.0 0.00 0.00 0.00 5 932.8
20260507141327 63 0 0.0 0.0 0.00 0.00 0.00 5 932.7
20260507135827 63 0 0.0 0.0 0.00 0.00 0.00 5 932.7
20260507134327 61 0 0.0 0.0 0.00 0.00 0.00 5 933.1
20260507132829 61 0 0.0 0.0 0.00 0.00 0.00 5 933.3
20260507131327 61 0 0.0 0.0 0.00 0.00 0.00 5 933.4
20260507125827 59 0 0.0 0.0 0.00 0.00 0.00 5 933.4
20260507124327 59 0 0.0 0.0 0.00 0.00 0.00 5 933.1
20260507122826 57 0 0.0 0.0 0.00 0.00 0.00 8 933.1
20260507121327 57 0 0.0 0.0 0.00 0.00 0.00 13 933.0
20260507114327 57 0 0.0 0.0 0.00 0.00 0.00 8 932.7
20260507114320 57 0 0.0 0.0 0.00 0.00 0.00 13 932.7
20260507112819 57 0 0.0 0.0 0.00 0.00 0.00 8 932.6
20260507111319 57 0 0.0 0.0 0.00 0.00 0.00 8 932.3
20260507105819 57 0 0.0 0.0 0.00 0.00 0.00 8 932.3
20260507104320 57 0 0.0 0.0 0.00 0.00 0.00 13 932.2
20260507102820 57 0 0.0 0.0 0.00 0.00 0.00 13 932.1
20260507101319 55 0 0.0 0.0 0.00 0.00 0.00 8 932.2
20260507095819 57 0 0.0 0.0 0.00 0.00 0.00 8 932.3
20260507094319 57 0 0.0 0.0 0.00 0.00 0.00 8 932.4
20260507092819 57 0 0.0 0.0 0.00 0.00 0.00 13 932.3
20260507091319 57 0 0.0 0.0 0.00 0.00 0.00 13 932.1
20260507085819 57 0 0.0 0.0 0.00 0.00 0.00 8 932.2
20260507084319 59 0 0.0 0.0 0.00 0.00 0.00 5 932.2
20260507082819 59 0 0.0 0.0 0.00 0.00 0.00 5 931.9
20260507081319 59 0 0.0 0.0 0.00 0.00 0.00 8 931.8
20260507075819 59 0 0.0 0.0 0.00 0.00 0.00 5 931.1
20260507074319 59 0 0.0 0.0 0.00 0.00 0.00 5 931.1
20260507072819 59 0 0.0 0.0 0.00 0.00 0.00 5 931.0
20260507071319 59 0 0.0 0.0 0.00 0.00 0.00 5 930.7
20260507065818 59 0 0.0 0.0 0.00 0.00 0.00 8 930.3
20260507064319 59 0 0.0 0.0 0.00 0.00 0.00 5 930.4
20260507062819 61 0 0.0 0.0 0.00 0.00 0.00 5 930.5
20260507061319 61 0 0.0 0.0 0.00 0.00 0.00 8 930.7
20260507055819 61 0 0.0 0.0 0.00 0.00 0.00 8 930.7
20260507054319 63 0 0.0 0.0 0.00 0.00 0.00 5 930.2
20260507052819 61 0 0.0 0.0 0.00 0.00 0.00 5 929.8
20260507051318 61 0 0.0 0.0 0.00 0.00 0.00 8 929.4
20260507045818 61 0 0.0 0.0 0.00 0.00 0.00 8 929.0
20260507044319 63 0 0.0 0.0 0.00 0.00 0.00 5 929.1
20260507042818 64 0 0.0 0.0 0.00 0.00 0.00 5 928.3
20260507041319 63 0 0.0 0.0 0.00 0.00 0.00 5 927.9
20260507035819 63 0 0.0 0.0 0.00 0.00 0.00 5 927.8
20260507034319 63 0 0.0 0.0 0.00 0.00 0.00 5 927.2
20260507032819 63 0 0.0 0.0 0.00 0.00 0.00 8 927.3
20260507031318 63 0 0.0 0.0 0.00 0.00 0.00 8 927.4
20260507025818 63 0 0.0 0.0 0.00 0.00 0.00 13 927.2
20260507024318 63 0 0.0 0.0 0.00 0.00 0.00 13 927.3
20260507022819 63 0 0.0 0.0 0.00 0.00 0.00 13 927.1
20260507021318 63 0 0.0 0.0 0.00 0.00 0.00 13 927.4
20260507015818 61 0 0.0 0.0 0.00 0.00 0.00 13 927.5
20260507014318 61 0 0.0 0.0 0.00 0.00 0.00 13 927.1
20260507012818 63 0 0.0 0.0 0.00 0.00 0.00 13 927.2
20260507011318 63 0 0.0 0.0 0.00 0.00 0.00 13 926.9
20260507005819 63 0 0.0 0.0 0.00 0.00 0.00 13 926.7
20260507004319 63 0 0.0 0.0 0.00 0.00 0.00 10 926.3
20260507002818 64 0 0.0 0.0 0.00 0.00 0.00 13 926.6
20260507001318 64 0 0.0 0.0 0.00 0.00 0.00 13 926.4
20260506235818 64 0 0.0 0.0 0.00 0.00 0.00 13 926.4
20260506234318 64 0 0.0 0.0 0.00 0.00 0.00 13 926.5
20260506232818 64 0 0.0 0.0 0.00 0.00 0.00 10 926.8
20260506231318 64 0 0.0 0.0 0.00 0.00 0.00 10 926.7
20260506225818 64 0 0.0 0.0 0.00 0.00 0.00 13 927.0
20260506224319 64 0 0.0 0.0 0.00 0.00 0.00 13 926.8
20260506222818 66 0 0.0 0.0 0.00 0.00 0.00 13 926.3
20260506221318 66 0 0.0 0.0 0.00 0.00 0.00 13 926.3
20260506215817 66 0 0.0 0.0 0.00 0.00 0.00 13 925.8
20260506214318 66 0 0.0 0.0 0.00 0.00 0.00 13 926.0
20260506212818 68 0 0.0 0.0 0.00 0.00 0.00 11 925.7
20260506211318 68 0 0.0 0.0 0.00 0.00 0.00 11 926.0
20260506205818 68 0 0.0 0.0 0.00 0.00 0.00 10 926.1
20260506204318 70 0 0.0 0.0 0.00 0.00 0.00 10 925.8
20260506202818 70 0 0.0 0.0 0.00 0.00 0.00 10 925.1
20260506201318 70 0 0.0 0.0 0.00 0.00 0.00 8 924.2
20260506195818 72 0 0.0 0.0 0.00 0.00 0.00 8 924.4
20260506194318 72 0 0.0 0.0 0.00 0.00 0.00 8 924.9
20260506194310 72 0 0.0 0.0 0.00 0.00 0.00 10 924.9
20260506192810 72 0 0.0 0.0 0.00 0.00 0.00 8 924.8
20260506191310 72 0 0.0 0.0 0.00 0.00 0.00 8 924.7
20260506185810 73 0 0.0 0.0 0.00 0.00 0.00 8 924.9
20260506184310 75 0 0.0 0.0 0.00 0.00 0.00 8 924.3
20260506182810 75 0 0.0 0.0 0.00 0.00 0.00 8 924.0
20260506181310 75 0 0.0 0.0 0.00 0.00 0.00 8 923.1
20260506175810 75 0 0.0 0.0 0.00 0.00 0.00 12 923.8
20260506174310 75 0 0.0 0.0 0.00 0.00 0.00 20 923.9
20260506172810 75 0 0.0 0.0 0.00 0.00 0.00 20 924.0
20260506171310 75 0 0.0 0.0 0.00 0.00 0.00 20 923.6
20260506165810 75 0 0.0 0.0 0.00 0.00 0.00 19 923.5
20260506164310 75 0 0.0 0.0 0.00 0.00 0.00 20 923.4
20260506162810 75 0 0.0 0.0 0.00 0.00 0.00 20 923.6
20260506161309 73 0 0.0 0.0 0.00 0.00 0.00 22 923.7
20260506155809 73 0 0.0 0.0 0.00 0.00 0.00 23 923.7
20260506154309 72 0 0.0 0.0 0.00 0.00 0.00 24 924.0
20260506152810 72 0 0.0 0.0 0.00 0.00 0.00 25 924.5
20260506151310 70 0 0.0 0.0 0.00 0.00 0.00 25 925.1
20260506145810 70 0 0.0 0.0 0.00 0.00 0.00 25 925.3